Weather in Novikovka

Russia / Tomsk District     56°55′26″N   85°57′12″E
temp.,
°C
wind,
m/s
gust,
m/s
humid.,
%
clouds,
%
prec.,
mm/h
press.,
hPa
HPBL,
m
18 january, mon
mon1801:00−10sw61490100 0.1 1011477
04:00−9ssw71588100 0.0 1009428
07:00−8ssw81782100 0.0 1006692
10:00−8sw71391100 0.6 1004861
13:00−8sw7128796 0.6 10041028
16:00−9sw6129096 0.1 1003809
19:00−11wsw6129189 0.3 1005737
22:00−14wsw6139084 0.1 1007584
19 january, tue
tue1901:00−15wsw5129190 0.1 1011586
04:00−21w489390 0.1 1014194
07:00−23wsw489586 0.1 1015201
10:00−24wsw4119589 0.0 1016347
13:00−23wsw5119294 0.0 1018521
16:00−22wsw389299 0.0 1018332
19:00−24wsw499699 0.0 1019242
22:00−25w3895100 0.1 1020260
20 january, wed
wed2001:00−28w349796 0.1 102274
04:00−31w349634 0.0 102552
07:00−33w339617 0.0 102829
10:00−34w23950 0.0 103119
13:00−29sw12910 0.0 1032162
16:00−29ssw11943 0.0 103219
19:00−32s12962 0.0 103219
22:00−33sse11960 0.0 103119
21 january, thu
thu2101:00−33ese229516 0.0 103019
04:00−33e339492 0.0 102945
07:00−30e369496 0.0 1027164
10:00−28e3693100 0.0 1024231
13:00−25e3695100 0.0 1020251
16:00−23ese3497100 0.0 1018244
19:00−22ese2499100 0.1 1016132
22:00−21se2299100 0.1 101375
22 january, fri
fri2201:00−18sse2398100 0.4 101199
04:00−16sse2397100 0.6 100883
07:00−16ssw2296100 0.8 100560
10:00−16sw3896100 0.3 1004291
13:00−16wsw71287100 0.3 1006770
16:00−20wsw61389100 0.0 1009637
19:00−22sw5139293 0.0 1012448
22:00−23wsw51293100 0.0 1013503